Hourly Data Report for January 29, 2017

All times are specified in Local Standard Time (LST). Add 1 hour to adjust for Daylight Saving Time where and when it is observed.

ST LEONARD CS
NEW BRUNSWICK

47°09'28.050" N
67°49'55.014" W
245.00 m
810I001
71019
WIY

Download Data

Hourly Data (January 2017)
Hourly Data Report for January 29, 2017
Temp Definition
°C
Dew Point Temp Definition
°C
Rel Hum Definition
%
Wind Dir Definition
10's deg

Wind Spd Definition
km/h
Visibility Definition
km
Stn Press Definition
kPa
Hmdx Definition


Wind Chill Definition


Weather Definition


TIME
00:00 -8.9 -10.6 88 21 11   96.52   -14 LegendNANA
01:00 -8.7 -10.0 90 22 9   96.52   -13 LegendNANA
02:00 -8.3 -9.4 92 20 10   96.60   -13 LegendNANA
03:00 -8.3 -9.3 93 20 7   96.63   -12 LegendNANA
04:00 -7.8 -8.9 92 19 8   96.65   -12 LegendNANA
05:00 -8.8 -9.7 93 19 7   96.67   -13 LegendNANA
06:00 -9.4 -10.2 94 22 11   96.69   -15 LegendNANA
07:00 -10.1 -10.8 95 17 12   96.74   -16 LegendNANA
08:00 -8.7 -9.6 94 19 10   96.75   -14 LegendNANA
09:00 -7.0 -8.1 92 20 8   96.77   -11 LegendNANA
10:00 -5.9 -7.1 91 18 8   96.78   -10 LegendNANA
11:00 -4.8 -5.8 93 20 10   96.81   -9 LegendNANA
12:00 -4.0 -4.6 96 21 10   96.78   -8 LegendNANA
13:00 -3.0 -3.7 95 20 9   96.74   -7 LegendNANA
14:00 -2.0 -3.5 90 22 10   96.73   -6 LegendNANA
15:00 -1.8 -3.4 89 23 7   96.75   -4 LegendNANA
16:00 -1.4 -4.3 81 21 6   96.77   -4 LegendNANA
17:00 -2.8 -3.0 98 24 9   96.85   -6 LegendNANA
18:00 -3.2 -3.5 98 24 9   96.92   -7 LegendNANA
19:00 -4.5 -5.0 97 22 9   96.96   -8 LegendNANA
20:00 -3.9 -4.4 96 22 12   97.02   -9 LegendNANA
21:00 -5.6 -6.3 95 24 9   97.06   -10 LegendNANA
22:00 -5.9 -6.7 95 28 10   97.13   -10 LegendNANA
23:00 -6.4 -7.4 92 30 14   97.17   -12 LegendNANA

Notes on Data Quality.

Legend

  • E = Estimated
  • M = Missing
  • NA = Not Available
  • ‡ = Partner data that is not subject to review by the National Climate Archives
Date modified: